Regional Weather Roundup
Issued by NWS Cleveland, OH

Home | Current Version | Previous Version | Graphics & Text | Print | Product List | Glossary On
Versions: 1 2 3 4 5 6 7 8 9 10 11 12 13 14 15 16 17 18 19 20 21 22 23 24 25 26 27 28 29 30 31 32 33 34 35 36 37 38 39 40 41 42 43 44 45 46 47 48 49 50
000
ASUS41 KCLE 222300
RWRCLE
OHIO REGIONAL WEATHER ROUNDUP
NATIONAL WEATHER SERVICE WILMINGTON, OH
700 PM EDT TUE JUL 22 2014

NOTE: "FAIR" INDICATES FEW OR NO CLOUDS BELOW 12,000 FEET WITH NO
SIGNIFICANT WEATHER AND/OR OBSTRUCTIONS TO VISIBILITY.

OHZ001>008-015>018-024>027-034-035-043-044-230000-
   NORTHWEST OHIO

CITY           SKY/WX    TMP DP  RH WIND       PRES   REMARKS
DEFIANCE       SUNNY     88  65  46 S14       29.98F HX  90
FINDLAY        SUNNY     87  64  46 SW12      30.00F
TOLEDO EXPRESS MOSUNNY   87  66  49 S9        29.98F
TOLEDO METCALF SUNNY     89  64  43 SW13      29.99S HX  90
LIMA           SUNNY     87  66  49 SW10      30.02F
$$

OHZ009>014-019>023-028>033-038-089-230000-
   NORTHEAST OHIO

CITY           SKY/WX    TMP DP  RH WIND       PRES   REMARKS
CLE-HOPKINS    MOSUNNY   86  66  51 W13       30.02F
CLE-LAKEFRONT  MOSUNNY   82  69  64 NE3       29.99F
CUY CO. ARPT   MOSUNNY   86  70  58 NW7       30.03F HX  90
LORAIN-ELYRIA  SUNNY     90  65  43 SW12      30.01F HX  92
ASHTABULA      SUNNY     83  68  60 VRB3      30.03F
AKRON-CANTON   MOSUNNY   86  67  52 SW9       30.05S
WOOSTER        NOT AVBL
MANSFIELD      SUNNY     86  66  51 SW9       30.05F
YOUNGSTOWN     MOSUNNY   85  67  54 SW9       30.05S
$$

OHZ042-051>053-060>062-070>072-077>081-230000-
  SOUTHWEST OHIO

CITY           SKY/WX    TMP DP  RH WIND       PRES   REMARKS
CINC-COVINGTON SUNNY     89  65  44 W10       30.04F HX  91
CINC-LUNKEN    SUNNY     89  67  47 W9        30.02S HX  92
HAMILTON       SUNNY     88  67  49 W8        30.04S HX  91
DAYTON         NOT AVBL
WRIGHT-PAT AFB SUNNY     87  68  53 W8        30.04S HX  91
DAYTON GENERAL SUNNY     88  66  48 W7        30.04F HX  90
WILMINGTON     MOSUNNY   84  70  62 S3        30.05S
$$

OHZ036-037-039>041-045>050-054>059-063>069-073>076-082>088-230000-
  CENTRAL AND SOUTHEAST OHIO

CITY           SKY/WX    TMP DP  RH WIND       PRES   REMARKS
COLUMBUS       MOSUNNY   89  68  49 SW8       30.03F HX  93
OSU AIRPORT    MOSUNNY   87  67  51 W12       30.03F HX  90
BOLTON FIELD   SUNNY     86  73  66 SW6       30.04F HX  93
RICKENBACK AFB NOT AVBL
NEWARK         SUNNY     86  68  54 SW7       30.03F
MARION         MOSUNNY   87  67  51 SW8       30.03F HX  90
LANCASTER      MOSUNNY   85  71  63 SW3       30.04F HX  90
ZANESVILLE     MOSUNNY   85  70  60 SW3       30.05S
NEW PHILLY     SUNNY     85  71  63 SW5       30.05S HX  90
$$


USA.gov is the U.S. government's official web portal to all federal, state and local government web resources and services.